Simultaneous Nadir Overpasses (SNOs) Predictions

Prediction of SNOs between FY3D and AQUA Satellite Orbit:

Table of predicted SNOs for the next 14.0 days since TLE Epoch: 3/25/2023
Index Date (FY3D) Time (FY3D) Lat,Lon (FY3D) SZA (FY3D ) Date (AQUA) Time (AQUA) Lat,Lon (AQUA) SZA (AQUA ) Distance(km) Time Diff (sec)
1 03/26/2023 08:17:29 -78.24,-141.98 103.32 03/26/2023 08:17:58 -78.24,-141.99 103.33 0.17 29
2 03/26/2023 09:08:02 77.69, 28.24 75.96 03/26/2023 09:07:11 77.70, 28.19 75.98 1.34 51
3 03/28/2023 22:03:13 78.44,-169.52 75.93 03/28/2023 22:04:14 78.44,-169.51 75.91 0.22 61
4 03/28/2023 22:53:46 -77.98, 0.37 104.69 03/28/2023 22:53:28 -77.98, 0.38 104.69 0.11 18
5 03/31/2023 12:39:32 78.24, -27.43 74.64 03/31/2023 12:39:44 78.24, -27.36 74.63 1.60 12
6 03/31/2023 13:30:04 -77.74, 142.59 106.04 03/31/2023 13:28:57 -77.73, 142.66 106.03 1.83 67
7 04/03/2023 02:25:13 -78.39, -54.69 106.17 04/03/2023 02:25:55 -78.39, -54.64 106.19 1.08 42
8 04/03/2023 03:15:45 77.82, 115.79 73.07 04/03/2023 03:15:07 77.83, 115.72 73.09 1.71 38
9 04/05/2023 16:10:54 78.49, -81.66 72.97 04/05/2023 16:12:03 78.50, -81.68 72.96 0.68 69



Historial Predications of SNOs between FY3D and AQUA
